STARLINK-33919, 63699

Orbit data source: Space-Track

STARLINK-33919, 63699 is a payload satellite owned by SpaceX/Seattle (US) in LEO that was launched on Mon, 28 Apr 2025 UTC via an FALCON 9 launch vehicle from the Air Force Western Test Range (AFWTR). Payload-class satellites include a variety of spacecraft equipped with specific instruments for various scientific and technological missions. These include communications satellites like Starlink; space stations such as the ISS; scientific satellites like the Hubble; Earth observation satellites from companies like Planet Labs, Umbra, and HawkEye 360; GPS; miniature CubeSats for education and research; and military/defense satellites.

Loading next visibility...
Identifier
63699, 2025-087C
Orbit
LEO
Country
Flag of USUS
Related business
Manufacturer
SpaceX/Seattle
Mission
Operational Commercial Communications
Bus & Motor
STARLINK V2MO, Unknown motor
Mass
575 kg wet, ~530 kg dry
Launch date (UTC)
2025-04-28 (8 months ago)
Launch vehicle
FALCON 9
Launch site
Air Force Western Test Range (AFWTR)
Object type
Payload
Rocket body
Debris
Shape & HBR
Box + 2 Pan, 17.7 m
Radar Cross Section
36.964 m², Large (>1 m²)

Expand to show TLE details & history
Last TLE update: 17 hours ago

TLE from 17 hours ago
0 STARLINK-33919
1 63699U 25087C   25348.90530968  .00024695  00000-0  84324-3 0  9997
2 63699  53.1580 253.7375 0001340  73.7549 286.3599 15.30196474 36216
Epoch: 2025-12-14T21:43Z
TLE epoch observation values (Epoch: 2025-12-14T21:43:38.756Z)
Latitude
-0.00002°
Longitude
-155.98552°
Altitude
475.867 km
Speed
7.629 km/s
True Right ascension
16h 54m 56s
True Declination
0° 00' 00"
Sunlit
Object was in daylight at epoch
Visualization orbit readout
Latitude
Unknown
Longitude
Unknown
Altitude
Unknown
Speed
Unknown
Apparent Right ascension
Unknown
Apparent Declination
Unknown
Sunlit
N/A
Visualization observer readout
Local Sidereal Time
13:23:46
Azimuth
Unknown
Elevation
Unknown
Doppler factor
Unknown
Orbital elements
Apogee altitude
476.401 km
Perigee altitude
474.564 km
Semi-major axis
6,853.619 km
Eccentricity
0.00013
Inclination
53.158°
RAAN
253.7375°
Arg. of periapsis
73.7549°
True anomaly
286.34517°
Mean anomaly
286.3599°
Eccentric anomaly
286.35253°
Mean motion
3.82528 °/min
Orbital period
94.11 mins
BSTAR
0.00084324
Loading maneuver chart data...
Computing Atmospheric mass density...
Loading historical data...
Loading historical data...
Loading historical data...
Loading historical data...
Loading historical data...
Loading historical data...
Loading historical data...

Documentation

Showing up to 5 results
|